SAS904 KEWR-ESSA

Flight info

Callsign SAS904
Flight time N/A
Altitude 39000
Route MERIT DCT HFD DCT PUT DCT EBONY DCT RIKAL/M084F390 DCT 54N050W 58N040W 60N030W 61N020W 62N010W/M084F410 DCT IPTON/N0487F410 DCT ROVPA DCT ELTOK
Aircraft A359/H-SDE2E3GHIJ3J4J5LM1ORWXY/LB1D1

Departure

Time 2026-04-24 12:55
Airport Newark Liberty International Airport (KEWR)

Arrival

Time N/A
Airport Stockholm-Arlanda Airport (ESSA)
Time Latitude Longitude Altitude Speed Heading
2026-04-24 12:31 40.68724 -74.17745 28 ft 0 kts 29°
2026-04-24 12:48 40.68707 -74.17757 28 ft 4 kts 29°
2026-04-24 12:48 40.68684 -74.17774 27 ft 4 kts 29°
2026-04-24 12:48 40.68669 -74.17785 27 ft 0 kts 29°
2026-04-24 12:51 40.68672 -74.17781 26 ft 2 kts 41°
2026-04-24 12:51 40.68669 -74.17765 26 ft 2 kts 116°
2026-04-24 12:51 40.68649 -74.17709 27 ft 10 kts 113°
2026-04-24 12:52 40.68618 -74.17617 28 ft 12 kts 115°
2026-04-24 12:52 40.68582 -74.17518 29 ft 12 kts 115°
2026-04-24 12:52 40.68519 -74.17488 29 ft 11 kts 200°
2026-04-24 12:52 40.68432 -74.17541 29 ft 16 kts 205°
2026-04-24 12:53 40.68328 -74.17605 28 ft 17 kts 206°
2026-04-24 12:53 40.68214 -74.17678 28 ft 19 kts 206°
2026-04-24 12:53 40.68093 -74.17755 28 ft 20 kts 206°
2026-04-24 12:53 40.67965 -74.17837 28 ft 21 kts 205°
2026-04-24 12:54 40.67864 -74.17902 29 ft 10 kts 206°
2026-04-24 12:54 40.67807 -74.17888 28 ft 9 kts 127°
2026-04-24 12:54 40.67789 -74.17804 28 ft 9 kts 74°
2026-04-24 12:54 40.67839 -74.17759 27 ft 11 kts 26°
2026-04-24 12:55 40.68051 -74.17623 27 ft 65 kts 26°
2026-04-24 12:55 40.68640 -74.17243 30 ft 122 kts 25°
2026-04-24 12:55 40.69546 -74.16665 150 ft 156 kts 20°
2026-04-24 12:55 40.70546 -74.16018 638 ft 169 kts 22°
2026-04-24 12:56 40.71663 -74.15322 1097 ft 185 kts 24°
2026-04-24 12:56 40.72880 -74.14539 1579 ft 206 kts 25°
2026-04-24 12:56 40.74223 -74.13642 1982 ft 226 kts 25°
2026-04-24 12:56 40.75619 -74.12567 2626 ft 239 kts 35°
2026-04-24 12:57 40.76884 -74.11082 3298 ft 248 kts 42°
2026-04-24 12:57 40.78055 -74.09370 3951 ft 255 kts 45°
2026-04-24 12:57 40.79192 -74.07521 4580 ft 263 kts 45°
2026-04-24 12:57 40.80337 -74.05606 5257 ft 268 kts 44°
2026-04-24 12:58 40.81501 -74.03675 6000 ft 269 kts 43°
2026-04-24 12:58 40.82689 -74.01743 6727 ft 272 kts 42°
2026-04-24 12:58 40.83904 -73.99806 7429 ft 276 kts 41°
2026-04-24 12:58 40.85150 -73.97847 8150 ft 281 kts 40°
2026-04-24 12:59 40.86419 -73.95863 8930 ft 283 kts 39°
2026-04-24 12:59 40.87689 -73.93878 9734 ft 283 kts 38°
2026-04-24 12:59 40.88980 -73.91869 10309 ft 293 kts 38°
2026-04-24 12:59 40.90346 -73.89766 10652 ft 311 kts 38°
2026-04-24 13:00 40.91801 -73.87526 10978 ft 330 kts 39°
2026-04-24 13:00 40.93324 -73.85163 11299 ft 347 kts 40°
2026-04-24 13:00 40.94913 -73.82678 11706 ft 359 kts 40°
2026-04-24 13:00 40.95982 -73.80988 12114 ft 364 kts 40°
2026-04-24 13:01 40.97614 -73.78395 12745 ft 369 kts 40°
2026-04-24 13:01 40.99268 -73.75765 13406 ft 374 kts 40°
2026-04-24 13:01 41.00944 -73.73103 14055 ft 378 kts 40°
2026-04-24 13:01 41.02639 -73.70419 14605 ft 382 kts 40°
2026-04-24 13:02 41.04939 -73.66781 15374 ft 388 kts 40°
2026-04-24 13:02 41.06093 -73.64957 15781 ft 391 kts 40°
2026-04-24 13:02 41.07848 -73.62182 16318 ft 396 kts 39°
2026-04-24 13:02 41.09623 -73.59376 16872 ft 400 kts 39°
2026-04-24 13:03 41.11418 -73.56533 17431 ft 404 kts 39°
2026-04-24 13:03 41.13232 -73.53657 18008 ft 408 kts 39°
2026-04-24 13:03 41.15059 -73.50756 18529 ft 412 kts 40°
2026-04-24 13:03 41.16902 -73.47825 19083 ft 414 kts 40°
2026-04-24 13:04 41.18751 -73.44880 19648 ft 417 kts 40°
2026-04-24 13:04 41.20607 -73.41922 20272 ft 418 kts 39°
2026-04-24 13:04 41.22464 -73.38956 20987 ft 417 kts 39°
2026-04-24 13:04 41.24320 -73.35989 21605 ft 419 kts 40°
2026-04-24 13:05 41.26194 -73.32999 22164 ft 422 kts 40°
2026-04-24 13:05 41.28078 -73.29993 22739 ft 425 kts 40°
2026-04-24 13:05 41.29977 -73.26962 23247 ft 429 kts 39°
2026-04-24 13:05 41.31891 -73.23901 23750 ft 432 kts 39°
2026-04-24 13:06 41.33792 -73.20856 24201 ft 435 kts 40°
2026-04-24 13:06 41.35725 -73.17754 24656 ft 437 kts 40°
2026-04-24 13:06 41.37635 -73.14570 25140 ft 445 kts 43°
2026-04-24 13:06 41.39354 -73.11095 25640 ft 451 kts 47°
2026-04-24 13:07 41.41007 -73.07525 26131 ft 455 kts 48°
2026-04-24 13:07 41.42635 -73.03886 26589 ft 458 kts 49°
2026-04-24 13:07 41.44254 -73.00206 27039 ft 461 kts 49°
2026-04-24 13:07 41.45869 -72.96509 27496 ft 464 kts 49°
2026-04-24 13:08 41.47499 -72.92779 27960 ft 467 kts 49°
2026-04-24 13:08 41.49146 -72.89023 28314 ft 471 kts 49°
2026-04-24 13:08 41.50807 -72.85235 28759 ft 474 kts 49°
2026-04-24 13:09 41.54142 -72.77619 29600 ft 477 kts 49°
2026-04-24 13:09 41.55820 -72.73787 30003 ft 480 kts 49°
2026-04-24 13:09 41.57509 -72.69925 30326 ft 482 kts 49°
2026-04-24 13:09 41.59201 -72.66052 30632 ft 484 kts 50°
2026-04-24 13:10 41.60903 -72.62152 30919 ft 487 kts 50°
2026-04-24 13:10 41.62609 -72.58237 31202 ft 489 kts 50°
2026-04-24 13:10 41.64325 -72.54297 31436 ft 493 kts 50°
2026-04-24 13:10 41.66067 -72.50343 31705 ft 493 kts 50°
2026-04-24 13:11 41.67839 -72.46407 32006 ft 494 kts 50°
2026-04-24 13:11 41.69616 -72.42487 32408 ft 492 kts 50°
2026-04-24 13:11 41.71363 -72.38630 32822 ft 490 kts 50°
2026-04-24 13:11 41.73123 -72.34735 33189 ft 489 kts 51°
2026-04-24 13:12 41.74879 -72.30840 33546 ft 488 kts 51°
2026-04-24 13:12 41.76627 -72.26950 33904 ft 487 kts 51°
2026-04-24 13:12 41.78369 -72.23065 34210 ft 486 kts 51°
2026-04-24 13:12 41.80102 -72.19191 34475 ft 485 kts 51°
2026-04-24 13:13 41.81839 -72.15304 34720 ft 486 kts 52°
2026-04-24 13:13 41.83569 -72.11425 35034 ft 484 kts 52°
2026-04-24 13:13 41.85292 -72.07555 35343 ft 482 kts 52°
2026-04-24 13:13 41.87009 -72.03694 35567 ft 482 kts 52°
2026-04-24 13:14 41.88728 -71.99825 35773 ft 483 kts 52°
2026-04-24 13:14 41.90448 -71.95951 35982 ft 483 kts 52°
2026-04-24 13:14 41.92162 -71.92087 36194 ft 482 kts 52°
2026-04-24 13:14 41.93878 -71.88211 36413 ft 482 kts 52°
2026-04-24 13:15 41.95740 -71.84500 36550 ft 476 kts 45°
2026-04-24 13:15 41.97850 -71.81111 36786 ft 472 kts 41°
2026-04-24 13:15 42.00019 -71.77809 37003 ft 470 kts 41°
2026-04-24 13:15 42.02210 -71.74551 37190 ft 469 kts 40°
2026-04-24 13:16 42.04409 -71.71316 37360 ft 469 kts 40°
2026-04-24 13:16 42.06614 -71.68082 37539 ft 469 kts 40°
2026-04-24 13:16 42.08820 -71.64844 37694 ft 469 kts 40°
2026-04-24 13:16 42.11021 -71.61601 37869 ft 469 kts 40°
2026-04-24 13:17 42.13220 -71.58354 38032 ft 469 kts 40°
2026-04-24 13:17 42.15411 -71.55108 38264 ft 468 kts 40°
2026-04-24 13:17 42.17602 -71.51856 38409 ft 468 kts 40°
2026-04-24 13:17 42.19788 -71.48608 38534 ft 469 kts 40°
2026-04-24 13:18 42.21979 -71.45348 38659 ft 469 kts 40°
2026-04-24 13:18 42.24167 -71.42090 38747 ft 469 kts 40°
2026-04-24 13:18 42.28544 -71.35559 38926 ft 469 kts 40°
2026-04-24 13:19 42.32938 -71.28992 38947 ft 472 kts 40°
2026-04-24 13:19 42.37328 -71.22409 38956 ft 470 kts 40°
2026-04-24 13:20 42.41705 -71.15834 38954 ft 470 kts 40°
2026-04-24 13:20 42.46077 -71.09253 38961 ft 470 kts 40°
2026-04-24 13:21 42.50418 -71.02705 38945 ft 470 kts 40°
2026-04-24 13:21 42.54782 -70.96106 38943 ft 470 kts 40°
2026-04-24 13:22 42.59145 -70.89494 38943 ft 470 kts 40°
2026-04-24 13:22 42.63516 -70.82858 38948 ft 473 kts 40°
2026-04-24 13:23 42.67920 -70.76160 38944 ft 477 kts 41°
2026-04-24 13:23 42.72341 -70.69410 38943 ft 477 kts 41°
2026-04-24 13:24 42.76749 -70.62663 38939 ft 477 kts 41°
2026-04-24 13:24 42.81163 -70.55896 38936 ft 478 kts 41°
2026-04-24 13:25 42.85583 -70.49103 38935 ft 479 kts 41°
2026-04-24 13:25 42.90005 -70.42294 38933 ft 480 kts 41°
2026-04-24 13:26 42.94424 -70.35470 38936 ft 479 kts 42°
2026-04-24 13:26 42.98831 -70.28647 38934 ft 478 kts 42°
2026-04-24 13:27 43.03231 -70.21822 38935 ft 478 kts 42°
2026-04-24 13:27 43.07598 -70.15034 38935 ft 479 kts 42°
2026-04-24 13:28 43.11994 -70.08184 38936 ft 479 kts 42°
2026-04-24 13:28 43.16382 -70.01329 38935 ft 479 kts 43°
2026-04-24 13:29 43.20771 -69.94456 38946 ft 479 kts 43°
2026-04-24 13:29 43.25149 -69.87583 38935 ft 478 kts 43°
2026-04-24 13:30 43.29516 -69.80712 38932 ft 478 kts 43°
2026-04-24 13:30 43.33881 -69.73828 38945 ft 478 kts 43°
2026-04-24 13:31 43.38241 -69.66936 38933 ft 477 kts 43°
2026-04-24 13:31 43.42585 -69.60051 38924 ft 477 kts 43°
2026-04-24 13:32 43.46930 -69.53151 38925 ft 477 kts 43°
2026-04-24 13:32 43.51267 -69.46247 38946 ft 477 kts 43°
2026-04-24 13:33 43.55587 -69.39349 38927 ft 474 kts 43°
2026-04-24 13:33 43.59896 -69.32455 38922 ft 474 kts 43°
2026-04-24 13:34 43.64194 -69.25563 38920 ft 474 kts 43°
2026-04-24 13:34 43.68487 -69.18662 38923 ft 474 kts 44°
2026-04-24 13:35 43.72779 -69.11747 38918 ft 474 kts 44°
2026-04-24 13:35 43.77059 -69.04832 38913 ft 473 kts 44°
2026-04-24 13:36 43.81346 -68.97893 38921 ft 475 kts 44°
2026-04-24 13:36 43.85636 -68.90931 38911 ft 475 kts 44°
2026-04-24 13:37 43.89899 -68.83994 38911 ft 475 kts 44°
2026-04-24 13:37 43.94177 -68.77016 38911 ft 475 kts 44°
2026-04-24 13:38 43.98457 -68.70018 38910 ft 475 kts 44°
2026-04-24 13:38 44.02729 -68.63015 38908 ft 475 kts 44°
2026-04-24 13:39 44.07004 -68.55992 38906 ft 475 kts 45°
2026-04-24 13:39 44.11268 -68.48969 38914 ft 476 kts 45°
2026-04-24 13:40 44.15534 -68.41926 38902 ft 476 kts 45°
2026-04-24 13:40 44.19798 -68.34870 38900 ft 476 kts 45°
2026-04-24 13:41 44.24054 -68.27808 38923 ft 476 kts 45°
2026-04-24 13:41 44.28318 -68.20717 38900 ft 478 kts 45°
2026-04-24 13:42 44.32587 -68.13600 38897 ft 479 kts 46°
2026-04-24 13:42 44.36855 -68.06463 38896 ft 479 kts 46°
2026-04-24 13:43 44.41123 -67.99311 38887 ft 479 kts 46°
2026-04-24 13:43 44.45383 -67.92154 38890 ft 479 kts 46°
2026-04-24 13:44 44.49612 -67.85031 38887 ft 479 kts 46°
2026-04-24 13:44 44.53870 -67.77842 38882 ft 479 kts 46°
2026-04-24 13:45 44.58119 -67.70649 38881 ft 479 kts 46°
2026-04-24 13:45 44.62367 -67.63441 38876 ft 479 kts 46°
2026-04-24 13:46 44.66610 -67.56223 38882 ft 479 kts 46°
2026-04-24 13:46 44.70845 -67.49000 38908 ft 479 kts 47°
2026-04-24 13:47 44.75086 -67.41749 38881 ft 481 kts 47°
2026-04-24 13:47 44.79329 -67.34475 38881 ft 481 kts 47°
2026-04-24 13:48 44.83570 -67.27186 38878 ft 481 kts 47°
2026-04-24 13:48 44.87781 -67.19930 38883 ft 481 kts 47°
2026-04-24 13:49 44.92041 -67.12674 38876 ft 479 kts 45°
2026-04-24 13:49 44.96658 -67.05902 38874 ft 478 kts 41°
2026-04-24 13:50 45.01359 -66.99270 38873 ft 478 kts 42°
2026-04-24 13:50 45.06016 -66.92545 38873 ft 478 kts 43°
2026-04-24 13:51 45.10628 -66.85761 38870 ft 479 kts 43°
2026-04-24 13:51 45.15230 -66.78948 38867 ft 479 kts 43°
2026-04-24 13:52 45.19056 -66.73272 38868 ft 479 kts 43°
2026-04-24 13:52 45.23651 -66.66445 38867 ft 479 kts 43°
2026-04-24 13:53 45.28244 -66.59608 38867 ft 479 kts 43°
2026-04-24 13:53 45.32840 -66.52748 38867 ft 480 kts 44°
2026-04-24 13:54 45.37437 -66.45870 38870 ft 480 kts 44°
2026-04-24 13:54 45.42035 -66.38972 38865 ft 480 kts 44°
2026-04-24 13:55 45.46627 -66.32067 38863 ft 480 kts 44°
2026-04-24 13:55 45.51219 -66.25143 38864 ft 480 kts 44°
2026-04-24 13:56 45.55801 -66.18216 38864 ft 480 kts 44°
2026-04-24 13:56 45.60381 -66.11275 38866 ft 480 kts 44°
2026-04-24 13:57 45.64961 -66.04317 38867 ft 480 kts 44°
2026-04-24 13:57 45.69536 -65.97348 38864 ft 480 kts 45°
2026-04-24 13:58 45.74069 -65.90426 38862 ft 480 kts 45°
2026-04-24 13:58 45.78634 -65.83437 38865 ft 480 kts 45°
2026-04-24 13:59 45.83196 -65.76435 38866 ft 480 kts 45°
2026-04-24 13:59 45.87745 -65.69433 38866 ft 480 kts 45°
2026-04-24 14:00 45.92290 -65.62421 38865 ft 479 kts 45°
2026-04-24 14:00 45.96825 -65.55406 38872 ft 479 kts 45°
2026-04-24 14:01 46.01358 -65.48376 38855 ft 480 kts 45°
2026-04-24 14:01 46.05897 -65.41319 38865 ft 480 kts 46°
2026-04-24 14:02 46.10425 -65.34260 38876 ft 480 kts 46°
2026-04-24 14:02 46.14952 -65.27184 38861 ft 480 kts 46°
2026-04-24 14:03 46.19479 -65.20089 38864 ft 480 kts 46°
2026-04-24 14:03 46.23995 -65.12993 38879 ft 480 kts 46°
2026-04-24 14:04 46.28508 -65.05885 38863 ft 480 kts 46°
2026-04-24 14:04 46.32984 -64.98815 38871 ft 480 kts 46°
2026-04-24 14:05 46.37488 -64.91681 38878 ft 479 kts 46°
2026-04-24 14:05 46.41980 -64.84549 38877 ft 479 kts 46°
2026-04-24 14:06 46.46471 -64.77399 38887 ft 479 kts 46°
2026-04-24 14:06 46.50952 -64.70247 38877 ft 479 kts 46°
2026-04-24 14:07 46.55423 -64.63091 38879 ft 478 kts 46°
2026-04-24 14:07 46.59894 -64.55917 38877 ft 478 kts 46°
2026-04-24 14:08 46.64355 -64.48740 38880 ft 478 kts 47°
2026-04-24 14:08 46.68807 -64.41558 38880 ft 478 kts 47°
2026-04-24 14:09 46.73255 -64.34363 38881 ft 478 kts 47°
2026-04-24 14:09 46.77702 -64.27151 38885 ft 478 kts 47°
2026-04-24 14:10 46.82139 -64.19935 38885 ft 477 kts 47°
2026-04-24 14:10 46.86533 -64.12771 38888 ft 477 kts 47°
2026-04-24 14:11 46.90954 -64.05543 38883 ft 477 kts 47°
2026-04-24 14:12 46.97576 -63.94682 38891 ft 476 kts 47°
2026-04-24 14:12 47.01979 -63.87434 38893 ft 476 kts 47°
2026-04-24 14:13 47.06379 -63.80173 38891 ft 476 kts 48°
2026-04-24 14:13 47.10768 -63.72911 38889 ft 476 kts 48°
2026-04-24 14:14 47.15157 -63.65628 38891 ft 476 kts 48°
2026-04-24 14:14 47.21723 -63.54698 38890 ft 475 kts 48°
2026-04-24 14:15 47.26098 -63.47389 38888 ft 475 kts 48°
2026-04-24 14:15 47.30466 -63.40073 38888 ft 475 kts 48°
2026-04-24 14:16 47.34823 -63.32755 38893 ft 475 kts 49°
2026-04-24 14:17 47.41368 -63.21724 38882 ft 477 kts 49°
2026-04-24 14:17 47.47880 -63.10705 38884 ft 476 kts 49°
2026-04-24 14:18 47.52234 -63.03312 38883 ft 476 kts 49°
2026-04-24 14:18 47.56577 -62.95916 38883 ft 476 kts 49°
2026-04-24 14:19 47.60920 -62.88501 38883 ft 476 kts 49°
2026-04-24 14:19 47.65253 -62.81084 38884 ft 476 kts 49°
2026-04-24 14:20 47.69580 -62.73655 38887 ft 476 kts 49°
2026-04-24 14:20 47.73908 -62.66202 38886 ft 476 kts 49°
2026-04-24 14:21 47.78226 -62.58748 38886 ft 476 kts 49°
2026-04-24 14:21 47.82542 -62.51276 38886 ft 476 kts 49°
2026-04-24 14:22 47.86825 -62.43841 38883 ft 476 kts 50°
2026-04-24 14:23 47.93278 -62.32599 38882 ft 476 kts 50°
2026-04-24 14:23 47.97570 -62.25096 38884 ft 475 kts 50°
2026-04-24 14:24 48.01856 -62.17581 38890 ft 475 kts 50°
2026-04-24 14:24 48.06146 -62.10039 38886 ft 477 kts 50°
2026-04-24 14:25 48.09717 -62.03745 38885 ft 477 kts 50°
2026-04-24 14:25 48.14732 -61.94881 38887 ft 477 kts 50°
2026-04-24 14:26 48.19014 -61.87289 38881 ft 477 kts 50°
2026-04-24 14:26 48.23267 -61.79728 38881 ft 477 kts 50°
2026-04-24 14:27 48.27538 -61.72112 38882 ft 477 kts 51°
2026-04-24 14:27 48.31808 -61.64476 38886 ft 477 kts 51°
2026-04-24 14:28 48.36074 -61.56824 38887 ft 477 kts 51°
2026-04-24 14:28 48.40332 -61.49168 38885 ft 477 kts 51°
2026-04-24 14:29 48.44588 -61.41490 38889 ft 477 kts 51°
2026-04-24 14:29 48.48838 -61.33804 38890 ft 478 kts 51°
2026-04-24 14:30 48.52399 -61.27346 38892 ft 478 kts 51°
2026-04-24 14:30 48.57329 -61.18378 38883 ft 478 kts 51°
2026-04-24 14:31 48.61565 -61.10649 38891 ft 477 kts 51°
2026-04-24 14:31 48.65789 -61.02920 38891 ft 477 kts 51°
2026-04-24 14:32 48.70011 -60.95171 38895 ft 477 kts 51°
2026-04-24 14:32 48.74225 -60.87415 38888 ft 478 kts 52°